EW4553 Weather Reports


time (UTC)temp
C
wind
direction
speed
KPH
gust
KPH
rain 1hr
cm
rain 24hr
cm
rain mn
cm
humidity
%
barometer
mb
20260510153048 15 303 16.1 27.4 0.00 0.00 0.00 62 1014.3
20260510153020 15 337 16.1 25.7 0.00 0.00 0.00 62 1014.5
20260510152451 15 337 16.1 32.2 0.00 0.00 0.00 62 1014.6
20260510151937 15 339 16.1 29.0 0.00 0.00 0.00 62 1014.6
20260510151628 15 35 17.7 32.2 0.00 0.00 0.00 62 1014.8
20260510151609 15 334 11.3 32.2 0.00 0.00 0.00 63 1014.5
20260510151111 15 338 16.1 27.4 0.00 0.00 0.00 63 1014.7
20260510150337 15 322 16.1 30.6 0.00 0.00 0.00 62 1014.8
20260510150050 15 354 16.1 30.6 0.00 0.00 0.00 63 1014.7
20260510145829 15 357 14.5 30.6 0.00 0.00 0.00 61 1014.8
20260510145326 15 359 14.5 27.4 0.00 0.00 0.00 60 1014.8
20260510144758 15 294 14.5 30.6 0.00 0.00 0.00 61 1014.8
20260510144558 15 312 12.9 27.4 0.00 0.00 0.00 62 1014.7
20260510144254 15 311 16.1 30.6 0.00 0.00 0.00 62 1014.8
20260510143750 15 308 16.1 30.6 0.00 0.00 0.00 62 1014.9
20260510143249 15 343 14.5 30.6 0.00 0.00 0.00 60 1015.0
20260510143007 15 1 14.5 30.6 0.00 0.00 0.00 60 1014.8
20260510142723 16 3 14.5 29.0 0.00 0.00 0.00 61 1015.1
20260510142427 16 339 16.1 29.0 0.00 0.00 0.00 59 1015.0
20260510141631 16 301 16.1 29.0 0.00 0.00 0.00 59 1015.0
20260510141602 16 339 14.5 29.0 0.00 0.00 0.00 60 1014.9
20260510141102 16 351 16.1 29.0 0.00 0.00 0.00 60 1015.0
20260510140601 16 311 14.5 29.0 0.00 0.00 0.00 60 1015.1
20260510140039 16 297 12.9 29.0 0.00 0.00 0.00 60 1015.1
20260510140010 16 318 16.1 29.0 0.00 0.00 0.00 60 1014.9
20260510135514 16 5 12.9 25.7 0.00 0.00 0.00 59 1015.2
20260510135239 16 353 12.9 29.0 0.00 0.00 0.00 60 1015.2
20260510134536 16 302 12.9 27.4 0.00 0.00 0.00 59 1015.0
20260510134448 16 346 14.5 29.0 0.00 0.00 0.00 59 1015.2
20260510134209 16 115 14.5 29.0 0.00 0.00 0.00 60 1015.1
20260510133432 16 340 14.5 29.0 0.00 0.00 0.00 59 1015.2
20260510133019 16 339 11.3 27.4 0.00 0.00 0.00 61 1015.0
20260510132935 17 358 16.1 33.8 0.00 0.00 0.00 61 1015.2
20260510132646 16 339 16.1 33.8 0.00 0.00 0.00 59 1015.2
20260510131920 17 9 14.5 33.8 0.00 0.00 0.00 59 1015.1
20260510131546 16 355 12.9 33.8 0.00 0.00 0.00 60 1014.9
20260510131417 16 296 14.5 33.8 0.00 0.00 0.00 59 1015.1
20260510130915 16 331 16.1 32.2 0.00 0.00 0.00 60 1015.1
20260510130347 16 1 16.1 33.8 0.00 0.00 0.00 58 1015.0
20260510130058 16 3 16.1 30.6 0.00 0.00 0.00 56 1014.9
20260510125834 17 344 12.9 33.8 0.00 0.00 0.00 56 1015.1
20260510125334 17 338 12.9 33.8 0.00 0.00 0.00 58 1015.2
20260510124810 17 16 14.5 33.8 0.00 0.00 0.00 56 1015.3
20260510124520 17 353 14.5 27.4 0.00 0.00 0.00 58 1015.2
20260510124243 17 8 14.5 27.4 0.00 0.00 0.00 58 1015.4
20260510123747 17 309 14.5 25.7 0.00 0.00 0.00 58 1015.4
20260510123221 17 301 16.1 25.7 0.00 0.00 0.00 57 1015.5
20260510123044 17 337 16.1 25.7 0.00 0.00 0.00 57 1015.3
20260510122717 17 308 16.1 29.0 0.00 0.00 0.00 58 1015.5
20260510122213 17 21 16.1 30.6 0.00 0.00 0.00 58 1015.5
20260510121711 17 24 16.1 30.6 0.00 0.00 0.00 58 1015.7
20260510121532 16 339 11.3 30.6 0.00 0.00 0.00 59 1015.4
20260510121205 17 337 16.1 27.4 0.00 0.00 0.00 58 1015.7
20260510120702 16 327 16.1 30.6 0.00 0.00 0.00 59 1015.7
20260510120156 17 337 16.1 30.6 0.00 0.00 0.00 58 1015.6
20260510120129 16 43 16.1 29.0 0.00 0.00 0.00 58 1015.6
20260510120042 16 308 16.1 30.6 0.00 0.00 0.00 58 1015.4
20260510115143 16 349 16.1 29.0 0.00 0.00 0.00 57 1015.8
20260510114640 16 23 14.5 29.0 0.00 0.00 0.00 60 1015.8
20260510114536 16 354 12.9 27.4 0.00 0.00 0.00 60 1015.6
20260510114143 16 8 14.5 29.0 0.00 0.00 0.00 61 1015.9
20260510113619 16 10 16.1 40.2 0.00 0.00 0.00 60 1016.0
20260510113115 16 333 16.1 40.2 0.00 0.00 0.00 58 1016.0
20260510113002 16 360 16.1 29.0 0.00 0.00 0.00 59 1015.8
20260510112615 16 304 17.7 40.2 0.00 0.00 0.00 61 1015.9
20260510112114 16 339 17.7 40.2 0.00 0.00 0.00 62 1015.8
20260510111617 16 318 14.5 32.2 0.00 0.00 0.00 61 1015.8
20260510111551 16 308 14.5 33.8 0.00 0.00 0.00 61 1016.0
20260510111051 15 358 16.1 33.8 0.00 0.00 0.00 63 1016.0
20260510110547 15 337 16.1 33.8 0.00 0.00 0.00 64 1016.1
20260510110327 15 302 16.1 33.8 0.00 0.00 0.00 63 1015.9
20260510110032 15 320 17.7 29.0 0.00 0.00 0.00 63 1015.8
20260510105545 15 335 16.1 37.0 0.00 0.00 0.00 62 1016.1
20260510105044 16 303 16.1 37.0 0.00 0.00 0.00 60 1016.2
20260510104600 16 356 14.5 29.0 0.00 0.00 0.00 60 1015.9
20260510104544 16 322 16.1 29.0 0.00 0.00 0.00 60 1016.1
20260510104044 16 337 17.7 35.4 0.00 0.00 0.00 62 1016.1
20260510103532 16 337 19.3 35.4 0.00 0.00 0.00 61 1016.1
20260510103044 16 301 14.5 30.6 0.00 0.00 0.00 62 1015.9
20260510103032 16 311 17.7 30.6 0.00 0.00 0.00 62 1016.1
20260510102534 16 312 17.7 30.6 0.00 0.00 0.00 61 1016.2
20260510102032 16 293 16.1 41.8 0.00 0.00 0.00 63 1016.1
20260510101535 16 313 16.1 41.8 0.00 0.00 0.00 62 1016.1
20260510101505 15 337 12.9 29.0 0.00 0.00 0.00 63 1015.9
20260510101008 15 338 19.3 41.8 0.00 0.00 0.00 62 1016.2
20260510100509 15 311 17.7 41.8 0.00 0.00 0.00 61 1016.2
20260510100006 15 297 14.5 32.2 0.00 0.00 0.00 64 1016.0
20260510095953 15 312 16.1 32.2 0.00 0.00 0.00 64 1016.1
20260510095453 15 353 16.1 32.2 0.00 0.00 0.00 63 1016.2
20260510094953 15 317 16.1 32.2 0.00 0.00 0.00 65 1016.2
20260510094525 14 13 12.9 32.2 0.00 0.00 0.00 66 1016.0
20260510094445 15 39 17.7 32.2 0.00 0.00 0.00 67 1016.2
20260510093947 15 349 19.3 33.8 0.00 0.00 0.00 66 1016.2
20260510093423 14 346 19.3 33.8 0.00 0.00 0.00 65 1016.2
20260510093109 14 307 17.7 33.8 0.00 0.00 0.00 65 1016.1
20260510092904 15 292 17.7 38.6 0.00 0.00 0.00 65 1016.2
20260510092342 15 41 16.1 38.6 0.00 0.00 0.00 67 1016.2
20260510091823 14 353 17.7 38.6 0.00 0.00 0.00 68 1016.2
20260510091515 13 339 16.1 38.6 0.00 0.00 0.00 67 1016.2
20260510091325 14 330 17.7 38.6 0.00 0.00 0.00 66 1016.2
20260510090825 14 331 16.1 32.2 0.00 0.00 0.00 68 1016.3
20260510090316 13 330 17.7 32.2 0.00 0.00 0.00 68 1016.4
20260510090009 13 288 17.7 32.2 0.00 0.00 0.00 69 1016.3
20260510085812 13 310 17.7 32.2 0.00 0.00 0.00 69 1016.5
20260510085314 13 320 19.3 37.0 0.00 0.00 0.00 70 1016.5
20260510084749 13 339 19.3 37.0 0.00 0.00 0.00 70 1016.6
20260510084505 12 311 17.7 32.2 0.00 0.00 0.00 71 1016.4
20260510084226 13 339 17.7 32.2 0.00 0.00 0.00 70 1016.6
20260510083704 12 0 17.7 32.2 0.00 0.00 0.00 70 1016.6
20260510083136 12 337 17.7 35.4 0.00 0.00 0.00 71 1016.7
20260510083018 12 344 16.1 32.2 0.00 0.00 0.00 71 1016.5
20260510082629 12 344 17.7 35.4 0.00 0.00 0.00 71 1016.6
20260510082132 12 339 19.3 35.4 0.00 0.00 0.00 71 1016.6
20260510081828 12 301 17.7 29.0 0.00 0.00 0.00 72 1016.7
20260510081514 12 351 19.3 29.0 0.00 0.00 0.00 72 1016.6
20260510081100 12 306 16.1 27.4 0.00 0.00 0.00 74 1016.8
20260510080548 12 308 16.1 27.4 0.00 0.00 0.00 74 1016.8
20260510080054 12 314 16.1 32.2 0.00 0.00 0.00 74 1016.7
20260510080005 12 299 16.1 32.2 0.00 0.00 0.00 74 1016.7
20260510075440 12 311 17.7 32.2 0.00 0.00 0.00 74 1016.9
20260510074927 12 344 16.1 32.2 0.00 0.00 0.00 74 1016.9
20260510074606 11 323 17.7 32.2 0.00 0.00 0.00 75 1016.7
20260510074428 11 332 14.5 32.2 0.00 0.00 0.00 76 1016.8
20260510074147 11 19 14.5 30.6 0.00 0.00 0.00 76 1016.7
20260510073647 11 3 14.5 30.6 0.00 0.00 0.00 77 1016.7
20260510073040 11 335 12.9 32.2 0.00 0.00 0.00 77 1016.6
20260510072858 11 313 17.7 41.8 0.00 0.00 0.00 77 1016.7
20260510072329 11 337 17.7 41.8 0.00 0.00 0.00 77 1016.6
20260510071804 11 29 16.1 41.8 0.00 0.00 0.00 78 1016.8
20260510071517 10 336 16.1 41.8 0.00 0.00 0.00 78 1016.6
20260510071236 11 351 16.1 41.8 0.00 0.00 0.00 78 1016.7
20260510070734 10 337 16.1 32.2 0.00 0.00 0.00 79 1016.6
20260510070228 10 39 17.7 32.2 0.00 0.00 0.00 79 1016.7
20260510070029 10 302 19.3 32.2 0.00 0.00 0.00 79 1016.5
20260510065725 10 331 16.1 32.2 0.00 0.00 0.00 79 1016.7
20260510065157 10 314 14.5 32.2 0.00 0.00 0.00 80 1016.6
20260510064656 10 348 16.1 32.2 0.00 0.00 0.00 81 1016.6
20260510064517 10 325 14.5 32.2 0.00 0.00 0.00 81 1016.5
20260510064346 10 358 16.1 32.2 0.00 0.00 0.00 81 1016.5
20260510063626 10 301 16.1 29.0 0.00 0.00 0.00 82 1016.6
20260510063319 9 290 16.1 29.0 0.00 0.00 0.00 82 1016.5
20260510063009 9 292 14.5 29.0 0.00 0.00 0.00 82 1016.4
20260510062553 9 341 16.1 29.0 0.00 0.00 0.00 82 1016.5
20260510062049 9 301 14.5 29.0 0.00 0.00 0.00 82 1016.5
20260510061813 9 301 16.1 29.0 0.00 0.00 0.00 82 1016.5
20260510061519 9 316 12.9 27.4 0.00 0.00 0.00 82 1016.4
20260510061039 9 339 16.1 29.0 0.00 0.00 0.00 83 1016.5
20260510060537 9 21 14.5 29.0 0.00 0.00 0.00 83 1016.5
20260510060052 8 317 12.9 24.1 0.00 0.00 0.00 83 1016.4
20260510060010 9 329 14.5 24.1 0.00 0.00 0.00 83 1016.6
20260510055659 8 8 14.5 27.4 0.00 0.00 0.00 84 1016.5
20260510054941 8 306 14.5 27.4 0.00 0.00 0.00 84 1016.6
20260510054505 8 342 12.9 25.7 0.00 0.00 0.00 84 1016.4
20260510054416 8 347 12.9 27.4 0.00 0.00 0.00 84 1016.5
20260510053913 8 309 12.9 27.4 0.00 0.00 0.00 84 1016.5
20260510053412 8 316 14.5 27.4 0.00 0.00 0.00 84 1016.5
20260510053019 8 319 14.5 27.4 0.00 0.00 0.00 84 1016.3
20260510052846 8 304 12.9 27.4 0.00 0.00 0.00 84 1016.5
20260510052320 8 357 12.9 25.7 0.00 0.00 0.00 83 1016.5
20260510051811 8 315 14.5 30.6 0.00 0.00 0.00 83 1016.6
20260510051504 8 303 14.5 30.6 0.00 0.00 0.00 83 1016.5
20260510051309 8 307 14.5 30.6 0.00 0.00 0.00 83 1016.6
20260510050745 8 311 12.9 29.0 0.00 0.00 0.00 83 1016.7
20260510050226 8 323 14.5 29.0 0.00 0.00 0.00 82 1016.7
20260510050053 8 329 11.3 29.0 0.00 0.00 0.00 82 1016.6
20260510045712 8 339 14.5 29.0 0.00 0.00 0.00 82 1016.8
20260510045146 8 332 12.9 29.0 0.00 0.00 0.00 81 1016.7
20260510044618 8 319 11.3 24.1 0.00 0.00 0.00 80 1016.7
20260510044533 8 297 12.9 22.5 0.00 0.00 0.00 80 1016.6
20260510044114 8 299 11.3 24.1 0.00 0.00 0.00 79 1016.7
20260510043547 8 296 12.9 30.6 0.00 0.00 0.00 79 1016.7
20260510043246 8 338 12.9 30.6 0.00 0.00 0.00 78 1016.6
20260510043106 8 15 14.5 27.4 0.00 0.00 0.00 78 1016.4
20260510042455 8 359 14.5 30.6 0.00 0.00 0.00 77 1016.6
20260510041954 8 349 16.1 30.6 0.00 0.00 0.00 77 1016.6
20260510041556 8 339 14.5 27.4 0.00 0.00 0.00 76 1016.4
20260510041425 8 331 16.1 27.4 0.00 0.00 0.00 76 1016.5
20260510040925 8 15 16.1 27.4 0.00 0.00 0.00 75 1016.6
20260510040355 8 315 16.1 27.4 0.00 0.00 0.00 75 1016.5
20260510040115 8 305 16.1 27.4 0.00 0.00 0.00 74 1016.5
20260510040045 8 337 14.5 27.4 0.00 0.00 0.00 74 1016.3
20260510035548 9 339 16.1 27.4 0.00 0.00 0.00 74 1016.5
20260510034802 9 301 16.1 27.4 0.00 0.00 0.00 73 1016.5
20260510034517 8 321 14.5 27.4 0.00 0.00 0.00 73 1016.4
20260510034240 9 22 16.1 27.4 0.00 0.00 0.00 73 1016.6
20260510033742 9 337 14.5 27.4 0.00 0.00 0.00 73 1016.6
20260510033500 9 298 12.9 22.5 0.00 0.00 0.00 72 1016.7
20260510033039 9 337 11.3 22.5 0.00 0.00 0.00 72 1016.6
20260510033003 9 297 12.9 24.1 0.00 0.00 0.00 72 1016.7
20260510032213 10 299 12.9 24.1 0.00 0.00 0.00 71 1016.8
20260510031927 10 343 12.9 24.1 0.00 0.00 0.00 70 1016.8
20260510031505 10 297 12.9 24.1 0.00 0.00 0.00 70 1016.6
20260510031205 10 294 12.9 25.7 0.00 0.00 0.00 70 1016.7
20260510030656 10 17 12.9 25.7 0.00 0.00 0.00 69 1016.7
20260510030157 10 306 14.5 27.4 0.00 0.00 0.00 69 1016.8
20260510030034 10 338 12.9 27.4 0.00 0.00 0.00 69 1016.6
20260510025653 10 305 14.5 27.4 0.00 0.00 0.00 68 1016.7
20260510025156 10 320 14.5 24.1 0.00 0.00 0.00 68 1016.8
20260510024641 10 317 14.5 24.1 0.00 0.00 0.00 68 1016.8
20260510024542 10 331 14.5 24.1 0.00 0.00 0.00 68 1016.7
20260510024405 11 318 11.3 24.1 0.00 0.00 0.00 68 1016.9
20260510023837 11 304 12.9 25.7 0.00 0.00 0.00 68 1016.8
20260510023109 11 24 12.9 25.7 0.00 0.00 0.00 67 1016.7
20260510023032 11 294 12.9 25.7 0.00 0.00 0.00 67 1016.5
20260510022608 11 334 12.9 25.7 0.00 0.00 0.00 67 1016.6
20260510022554 11 311 11.3 25.7 0.00 0.00 0.00 67 1016.5
20260510021607 11 348 11.3 27.4 0.00 0.00 0.00 67 1016.5
20260510021508 11 323 11.3 27.4 0.00 0.00 0.00 68 1016.4
20260510021107 11 343 11.3 27.4 0.00 0.00 0.00 67 1016.6
20260510020605 11 339 11.3 27.4 0.00 0.00 0.00 67 1016.7
20260510020328 11 341 12.9 24.1 0.00 0.00 0.00 68 1016.7
20260510020046 11 327 9.7 27.4 0.00 0.00 0.00 68 1016.6
20260510015547 11 301 14.5 27.4 0.00 0.00 0.00 68 1016.7
20260510015030 11 339 14.5 25.7 0.00 0.00 0.00 68 1016.6
20260510014726 12 301 14.5 25.7 0.00 0.00 0.00 68 1016.5
20260510014521 11 312 11.3 25.7 0.00 0.00 0.00 68 1016.4
20260510014006 12 310 16.1 25.7 0.00 0.00 0.00 69 1016.4
20260510013946 12 304 14.5 25.7 0.00 0.00 0.00 69 1016.4
20260510013043 12 338 14.5 24.1 0.00 0.00 0.00 70 1016.3
20260510013004 12 320 12.9 24.1 0.00 0.00 0.00 70 1016.5
20260510012439 12 332 12.9 24.1 0.00 0.00 0.00 70 1016.5
20260510011937 12 353 11.3 22.5 0.00 0.00 0.00 71 1016.6
20260510011542 12 342 9.7 19.3 0.00 0.00 0.00 71 1016.5
20260510011420 12 353 9.7 22.5 0.00 0.00 0.00 71 1016.6
20260510010921 12 311 11.3 22.5 0.00 0.00 0.00 72 1016.6
20260510010416 12 316 11.3 22.5 0.00 0.00 0.00 72 1016.5
20260510010121 12 349 8.0 20.9 0.00 0.00 0.00 72 1016.4
20260510005903 12 301 9.7 20.9 0.00 0.00 0.00 72 1016.6
20260510005405 12 316 9.7 20.9 0.00 0.00 0.00 72 1016.6
20260510005057 12 339 9.7 20.9 0.00 0.00 0.00 73 1016.5
20260510004610 12 338 8.0 20.9 0.00 0.00 0.00 73 1016.5
20260510004332 12 350 8.0 20.9 0.00 0.00 0.00 73 1016.7
20260510003829 12 313 8.0 17.7 0.00 0.00 0.00 74 1016.7
20260510003327 12 342 8.0 17.7 0.00 0.00 0.00 74 1016.6
20260510003105 12 314 8.0 17.7 0.00 0.00 0.00 74 1016.5
20260510002803 12 288 8.0 17.7 0.00 0.00 0.00 74 1016.7
20260510002257 12 307 9.7 22.5 0.00 0.00 0.00 74 1016.6
20260510001757 13 334 11.3 22.5 0.00 0.00 0.00 75 1016.7
20260510001535 12 337 11.3 19.3 0.00 0.00 0.00 75 1016.6
20260510001256 13 306 12.9 22.5 0.00 0.00 0.00 75 1016.7
20260510000756 13 302 12.9 22.5 0.00 0.00 0.00 76 1016.7
20260510000259 13 316 12.9 20.9 0.00 0.00 0.00 76 1016.6
20260510000016 12 306 11.3 20.9 0.00 0.00 0.00 76 1016.5
20260509235955 13 334 11.3 20.9 0.00 0.00 0.00 76 1016.6
20260509235212 13 302 9.7 19.3 0.00 0.00 0.00 76 1016.6
20260509234712 13 344 9.7 19.3 0.00 0.00 0.00 76 1016.6
20260509234621 12 354 9.7 19.3 0.00 0.00 0.00 76 1016.5
20260509234209 13 312 9.7 17.7 0.00 0.00 0.00 77 1016.7
20260509233929 13 312 9.7 17.7 0.00 0.00 0.00 78 1016.7
20260509233139 13 323 9.7 17.7 0.00 0.00 0.00 78 1016.7
20260509233006 12 313 11.3 17.7 0.00 0.00 0.00 78 1016.5
20260509232850 13 311 9.7 17.7 0.00 0.00 0.00 78 1016.6
20260509232127 13 311 6.4 14.5 0.00 0.00 0.00 78 1016.6
20260509231557 13 339 4.8 12.9 0.00 0.00 0.00 78 1016.5
20260509231525 13 357 4.8 12.9 0.00 0.00 0.00 78 1016.4
20260509231029 13 3 8.0 19.3 0.00 0.00 0.00 78 1016.5
20260509230512 13 304 9.7 19.3 0.00 0.00 0.00 78 1016.5
20260509230046 13 309 8.0 19.3 0.00 0.00 0.00 78 1016.3
20260509230014 13 306 9.7 19.3 0.00 0.00 0.00 77 1016.4
20260509225457 13 304 8.0 19.3 0.00 0.00 0.00 77 1016.4
20260509224957 13 304 8.0 14.5 0.00 0.00 0.00 77 1016.4
20260509224538 13 299 6.4 17.7 0.00 0.00 0.00 77 1016.2
20260509224500 13 339 9.7 19.3 0.00 0.00 0.00 77 1016.3
20260509224213 13 285 9.7 19.3 0.00 0.00 0.00 77 1016.3
20260509223454 13 313 9.7 19.3 0.00 0.00 0.00 77 1016.2
20260509223056 13 342 11.3 19.3 0.00 0.00 0.00 76 1016.1
20260509222926 13 313 9.7 19.3 0.00 0.00 0.00 76 1016.3
20260509222423 13 301 11.3 19.3 0.00 0.00 0.00 76 1016.3
20260509221855 13 299 12.9 17.7 0.00 0.00 0.00 76 1016.2
20260509221526 13 304 11.3 17.7 0.00 0.00 0.00 75 1016.0
20260509221353 13 292 11.3 17.7 0.00 0.00 0.00 75 1016.1
20260509220847 13 303 11.3 17.7 0.00 0.00 0.00 74 1016.2
20260509220345 13 313 11.3 17.7 0.00 0.00 0.00 73 1016.2
20260509220258 13 283 11.3 16.1 0.00 0.00 0.00 73 1016.2
20260509220108 13 303 9.7 16.1 0.00 0.00 0.00 73 1016.0
20260509215807 13 313 12.9 19.3 0.00 0.00 0.00 72 1016.2
20260509214810 13 298 11.3 19.3 0.00 0.00 0.00 71 1016.2
20260509214520 13 304 11.3 16.1 0.00 0.00 0.00 70 1016.1
20260509214506 14 305 11.3 19.3 0.00 0.00 0.00 70 1016.3
20260509213738 14 305 12.9 19.3 0.00 0.00 0.00 68 1016.2
20260509213224 14 304 11.3 19.3 0.00 0.00 0.00 68 1016.2
20260509213015 14 334 11.3 19.3 0.00 0.00 0.00 67 1016.0
20260509212956 15 308 9.7 16.1 0.00 0.00 0.00 67 1016.1
20260509212210 15 303 9.7 16.1 0.00 0.00 0.00 66 1016.1
20260509211909 15 303 11.3 17.7 0.00 0.00 0.00 66 1016.1
20260509211554 15 323 9.7 16.1 0.00 0.00 0.00 66 1015.9
20260509211144 15 302 11.3 16.1 0.00 0.00 0.00 66 1016.0
20260509210855 15 296 11.3 17.7 0.00 0.00 0.00 66 1016.0
20260509210131 15 298 11.3 16.1 0.00 0.00 0.00 66 1016.1
20260509210104 15 301 9.7 16.1 0.00 0.00 0.00 66 1015.9
20260509205626 15 320 11.3 17.7 0.00 0.00 0.00 66 1016.0
20260509205121 15 300 11.3 17.7 0.00 0.00 0.00 66 1016.0
20260509204620 15 314 9.7 16.1 0.00 0.00 0.00 66 1015.9
20260509204529 15 304 8.0 16.1 0.00 0.00 0.00 66 1015.7
20260509204119 15 302 11.3 16.1 0.00 0.00 0.00 65 1015.8
20260509203559 15 299 11.3 16.1 0.00 0.00 0.00 65 1015.7
20260509203106 15 313 11.3 19.3 0.00 0.00 0.00 65 1015.5
20260509203058 16 322 11.3 19.3 0.00 0.00 0.00 65 1015.7
20260509202532 16 293 9.7 17.7 0.00 0.00 0.00 65 1015.6
20260509202008 16 303 8.0 16.1 0.00 0.00 0.00 64 1015.7
20260509201523 15 304 8.0 12.9 0.00 0.00 0.00 65 1015.6
20260509201442 16 304 6.4 12.9 0.00 0.00 0.00 65 1015.7
20260509200921 16 295 6.4 12.9 0.00 0.00 0.00 65 1015.7
20260509200419 16 312 4.8 12.9 0.00 0.00 0.00 65 1015.7
20260509200110 15 306 6.4 11.3 0.00 0.00 0.00 65 1015.5
20260509195920 16 306 1.6 9.7 0.00 0.00 0.00 65 1015.7
20260509195418 16 275 0.0 0.0 0.00 0.00 0.00 66 1015.6
20260509195139 16 236 0.0 0.0 0.00 0.00 0.00 65 1015.6
20260509194545 16 236 0.0 0.0 0.00 0.00 0.00 65 1015.5
20260509194354 16 236 0.0 0.0 0.00 0.00 0.00 65 1015.6
20260509193850 16 232 0.0 0.0 0.00 0.00 0.00 64 1015.6
20260509193351 16 232 0.0 0.0 0.00 0.00 0.00 64 1015.5
20260509193029 16 158 0.0 0.0 0.00 0.00 0.00 63 1015.4
20260509192843 16 157 0.0 0.0 0.00 0.00 0.00 63 1015.6
20260509192341 16 145 0.0 0.0 0.00 0.00 0.00 63 1015.5
20260509191840 16 145 0.0 0.0 0.00 0.00 0.00 63 1015.5
20260509191603 16 145 0.0 0.0 0.00 0.00 0.00 63 1015.5
20260509191534 16 145 0.0 0.0 0.00 0.00 0.00 64 1015.3
20260509190816 16 145 0.0 0.0 0.00 0.00 0.00 63 1015.4
20260509190255 16 145 0.0 0.0 0.00 0.00 0.00 62 1015.4
20260509190012 16 145 0.0 0.0 0.00 0.00 0.00 60 1015.2
20260509185956 17 145 0.0 0.0 0.00 0.00 0.00 61 1015.3
20260509185209 17 145 0.0 0.0 0.00 0.00 0.00 59 1015.3
20260509184659 17 145 0.0 0.0 0.00 0.00 0.00 58 1015.4
20260509184601 16 145 0.0 0.0 0.00 0.00 0.00 59 1015.2
20260509184200 17 145 0.0 0.0 0.00 0.00 0.00 59 1015.5
20260509183638 17 145 0.0 1.6 0.00 0.00 0.00 58 1015.5
20260509183138 17 145 0.0 1.6 0.00 0.00 0.00 58 1015.4
20260509183010 17 145 0.0 1.6 0.00 0.00 0.00 58 1015.2
20260509182631 17 145 0.0 0.0 0.00 0.00 0.00 58 1015.4
20260509182122 17 145 0.0 0.0 0.00 0.00 0.00 58 1015.4
20260509181835 17 145 0.0 0.0 0.00 0.00 0.00 57 1015.4
20260509181823 17 145 0.0 0.0 0.00 0.00 0.00 57 1015.4
20260509181537 17 145 0.0 0.0 0.00 0.00 0.00 57 1015.3
20260509180554 17 145 0.0 0.0 0.00 0.00 0.00 57 1015.3
20260509180029 17 145 0.0 0.0 0.00 0.00 0.00 56 1015.3
20260509180019 17 145 0.0 0.0 0.00 0.00 0.00 56 1015.2
20260509175507 17 145 0.0 0.0 0.00 0.00 0.00 56 1015.4
20260509175005 17 145 0.0 0.0 0.00 0.00 0.00 56 1015.4
20260509174548 17 145 0.0 0.0 0.00 0.00 0.00 55 1015.2
20260509174507 17 145 0.0 0.0 0.00 0.00 0.00 56 1015.3
20260509174219 17 145 0.0 0.0 0.00 0.00 0.00 55 1015.3
20260509173932 18 145 0.0 0.0 0.00 0.00 0.00 55 1015.4
20260509173101 17 145 0.0 0.0 0.00 0.00 0.00 53 1015.2
20260509172932 18 142 0.0 0.0 0.00 0.00 0.00 54 1015.4
20260509172430 18 142 0.0 0.0 0.00 0.00 0.00 53 1015.4
20260509171904 18 143 0.0 1.6 0.00 0.00 0.00 53 1015.4
20260509171600 18 143 0.0 1.6 0.00 0.00 0.00 52 1015.4
20260509171530 18 143 0.0 0.0 0.00 0.00 0.00 52 1015.3
20260509170811 18 143 0.0 1.6 0.00 0.00 0.00 52 1015.4
20260509170759 18 143 0.0 1.6 0.00 0.00 0.00 52 1015.5
20260509170022 18 143 0.0 0.0 0.00 0.00 0.00 53 1015.3
20260509170018 18 143 0.0 0.0 0.00 0.00 0.00 54 1015.5
20260509165258 19 143 0.0 0.0 0.00 0.00 0.00 52 1015.5
20260509164738 19 143 0.0 0.0 0.00 0.00 0.00 52 1015.5
20260509164518 18 143 0.0 0.0 0.00 0.00 0.00 51 1015.3
20260509164215 19 143 0.0 0.0 0.00 0.00 0.00 49 1015.5
20260509163928 19 143 0.0 0.0 0.00 0.00 0.00 52 1015.5
20260509163205 19 143 0.0 0.0 0.00 0.00 0.00 52 1015.6
20260509163026 19 143 0.0 0.0 0.00 0.00 0.00 53 1015.4
20260509162638 19 143 0.0 0.0 0.00 0.00 0.00 51 1015.6
20260509162139 19 143 0.0 0.0 0.00 0.00 0.00 52 1015.6
20260509161634 19 143 0.0 0.0 0.00 0.00 0.00 51 1015.7
20260509161520 19 143 0.0 0.0 0.00 0.00 0.00 53 1015.5
20260509161129 20 143 0.0 0.0 0.00 0.00 0.00 53 1015.7
20260509160629 20 143 0.0 0.0 0.00 0.00 0.00 52 1015.7
20260509160128 20 133 0.0 0.0 0.00 0.00 0.00 54 1015.8
20260509160046 19 133 0.0 0.0 0.00 0.00 0.00 54 1015.6
20260509155601 20 133 0.0 0.0 0.00 0.00 0.00 53 1015.8
20260509155100 20 121 0.0 0.0 0.00 0.00 0.00 53 1015.7
20260509154554 20 121 0.0 0.0 0.00 0.00 0.00 53 1015.7
20260509154505 20 121 0.0 0.0 0.00 0.00 0.00 53 1015.6
20260509154053 20 121 0.0 0.0 0.00 0.00 0.00 51 1015.7
20260509153527 20 121 0.0 1.6 0.00 0.00 0.00 56 1015.7